[[{"header":{"parameterUnit":"m.s-1","parameterCategory":1,"la1":30.2992,"la2":30.254,"lo1":-89.0895,"lo2":-89.0443,"dy":0.0025,"dx":0.0025,"nx":19,"ny":19,"refTime":"2026-05-11T21:00:00:Z","depth":0,"parameterNumber":2,"parameterNumberName":"U-component_of_WINDS"},"data":[0,0,0,-0.5887,-0.5887,-0.5886,-0.5886,-0.5895,-0.5896,0,0,0,0,0,0,0,0,0,0,0,-0.5893,-0.5894,-0.5887,-0.5887,-0.5886,-0.5886,-0.5895,-0.5896,0,0,0,0,0,0,0,0,0,0,0,-0.5893,-0.5894,-0.5894,-0.5887,-0.5886,-0.5886,-0.5895,-0.5892,0,0,0,0,0,0,0,0,0,0,-0.5891,-0.5904,-0.5894,-0.5894,-0.5887,-0.5886,-0.5886,-0.5892,-0.5892,-0.59,0,-0.5909,0,-0.5903,-0.5897,-0.5897,0,0,0,-0.5882,-0.5904,-0.5897,-0.5894,-0.5887,-0.5886,-0.5885,-0.5892,-0.5893,-0.5901,-0.5909,-0.5909,-0.5903,-0.5897,-0.5897,-0.5959,-0.5959,0,0,-0.5882,-0.5897,-0.5897,-0.5898,-0.5899,-0.5885,-0.5885,-0.5892,-0.5902,-0.5909,-0.5909,-0.5903,-0.5897,-0.5897,-0.5958,-0.5959,0,0,0,-0.5885,-0.5897,-0.5891,-0.5898,-0.5897,-0.5885,-0.5885,-0.5902,-0.5898,-0.5909,-0.5903,-0.5897,-0.5898,-0.5958,-0.5958,-0.5999,0,0,0,-0.5885,-0.5899,-0.5891,-0.59,-0.5897,-0.5899,-0.5895,-0.5898,-0.5898,-0.5903,-0.5897,-0.5898,-0.5957,-0.5958,-0.5997,-0.6017,0,0,0,-0.5891,-0.59,-0.5902,-0.5901,-0.5901,-0.5899,-0.5896,-0.5898,-0.5895,-0.5897,-0.5898,-0.5957,-0.5958,-0.5995,-0.6013,-0.6038,0,0,0,-0.5902,-0.5938,-0.5903,-0.594,-0.5901,-0.5924,-0.5896,-0.5912,-0.5918,-0.5897,-0.5957,-0.5958,-0.5994,-0.6011,-0.6036,-0.6064,-0.6076,0,0,-0.5956,-0.5945,-0.5966,-0.5934,-0.5967,-0.5923,-0.5961,-0.5953,-0.594,-0.5953,-0.5954,-0.5998,-0.6013,-0.6038,-0.6136,-0.6146,0,0,0,-0.5988,-0.6003,-0.6009,-0.6016,-0.601,-0.6007,-0.5991,-0.5988,-0.5998,-0.595,-0.6012,-0.602,-0.6034,-0.6047,-0.6055,-0.6067,-0.5964,-0.5964,-0.5964,-0.6087,-0.6067,-0.61,-0.608,-0.6087,-0.607,-0.6074,-0.6066,-0.6044,-0.6059,-0.6064,-0.6126,-0.6141,-0.6147,-0.6159,-0.6075,-0.6075,-0.6075,-0.6075,-0.6166,-0.6185,-0.6153,-0.6174,-0.6153,-0.617,-0.6154,-0.6138,-0.6151,-0.6121,-0.6132,-0.6103,-0.6159,-0.6168,-0.6078,-0.6078,-0.6077,-0.6077,-0.6077,-0.6231,-0.6236,-0.6231,-0.6238,-0.6246,-0.6223,-0.6237,-0.6216,-0.6197,-0.6208,-0.6211,-0.6211,-0.6209,-0.621,-0.621,-0.6211,-0.6211,-0.6211,-0.6211,-0.6301,-0.6293,-0.6308,-0.6304,-0.6305,-0.6304,-0.6285,-0.6286,-0.6281,-0.6265,-0.6265,-0.6243,-0.6167,-0.615,-0.6215,-0.6214,-0.6213,-0.6213,-0.6213,-0.6392,-0.6368,-0.639,-0.6392,-0.6384,-0.6394,-0.6365,-0.6369,-0.6366,-0.6373,-0.6347,-0.6294,-0.6282,-0.6275,-0.6261,-0.635,-0.635,-0.635,-0.635,-0.6449,-0.644,-0.6458,-0.6461,-0.6462,-0.6438,-0.6464,-0.6449,-0.643,-0.6427,-0.641,-0.6389,-0.6382,-0.6374,-0.6365,-0.6352,-0.6463,-0.6463,-0.6463,-0.6505,-0.6494,-0.6521,-0.6501,-0.6494,-0.6487,-0.6511,-0.6516,-0.6489,-0.6467,-0.6425,-0.642,-0.6385,-0.6374,-0.6354,-0.634,-0.6315,0,0]},{"header":{"parameterUnit":"m.s-1","parameterCategory":1,"la1":30.2992,"la2":30.254,"lo1":-89.0895,"lo2":-89.0443,"dy":0.0025,"dx":0.0025,"nx":19,"ny":19,"refTime":"2026-05-11T21:00:00:Z","depth":0,"parameterNumber":3,"parameterNumberName":"V-component_of_WINDS"},"data":[0,0,0,-3.742,-3.7424,-3.7607,-3.7608,-3.783,-3.7832,0,0,0,0,0,0,0,0,0,0,0,-3.7361,-3.7362,-3.7419,-3.7424,-3.7607,-3.7608,-3.783,-3.7832,0,0,0,0,0,0,0,0,0,0,0,-3.736,-3.7362,-3.7363,-3.7425,-3.7607,-3.7608,-3.7829,-3.7695,0,0,0,0,0,0,0,0,0,0,-3.7519,-3.746,-3.7361,-3.7364,-3.7426,-3.7606,-3.7608,-3.7688,-3.7703,-3.7743,0,-3.7779,0,-3.7809,-3.7847,-3.7847,0,0,0,-3.7427,-3.7448,-3.7502,-3.7364,-3.7427,-3.7606,-3.7525,-3.7697,-3.7713,-3.7763,-3.7783,-3.7791,-3.7813,-3.7848,-3.7849,-3.8077,-3.8078,0,0,-3.7417,-3.739,-3.749,-3.7512,-3.7486,-3.7519,-3.7531,-3.7707,-3.7726,-3.7783,-3.7797,-3.7817,-3.7849,-3.7851,-3.8076,-3.8077,0,0,0,-3.7386,-3.7383,-3.7433,-3.7503,-3.7537,-3.7524,-3.7538,-3.7718,-3.7737,-3.7799,-3.7819,-3.7851,-3.7853,-3.8075,-3.8077,-3.81,0,0,0,-3.738,-3.7365,-3.7429,-3.7414,-3.7534,-3.7631,-3.7545,-3.7725,-3.7746,-3.7818,-3.7851,-3.7855,-3.8074,-3.8076,-3.8097,-3.8115,0,0,0,-3.735,-3.7362,-3.7387,-3.7413,-3.7491,-3.7628,-3.7657,-3.773,-3.7758,-3.7847,-3.7856,-3.8073,-3.8076,-3.8095,-3.8111,-3.817,0,0,0,-3.7311,-3.7403,-3.7387,-3.7497,-3.7489,-3.7642,-3.7656,-3.777,-3.785,-3.7852,-3.8074,-3.8076,-3.8094,-3.8109,-3.8167,-3.8216,-3.8233,0,0,-3.7412,-3.7414,-3.7481,-3.7472,-3.7622,-3.7616,-3.7768,-3.7864,-3.7894,-3.8014,-3.802,-3.8098,-3.8111,-3.8169,-3.8337,-3.8351,0,0,0,-3.7504,-3.7552,-3.7598,-3.7674,-3.7751,-3.7819,-3.7895,-3.793,-3.8034,-3.7951,-3.8135,-3.8143,-3.8178,-3.8203,-3.8215,-3.8247,-3.8086,-3.8086,-3.8086,-3.761,-3.7647,-3.7761,-3.7821,-3.7894,-3.7973,-3.8036,-3.8097,-3.8109,-3.8152,-3.8189,-3.8287,-3.8314,-3.8323,-3.8357,-3.8216,-3.8216,-3.8216,-3.8216,-3.7763,-3.7838,-3.7857,-3.7975,-3.8012,-3.811,-3.8189,-3.8196,-3.8292,-3.8262,-3.8294,-3.826,-3.8337,-3.8369,-3.8218,-3.8218,-3.8218,-3.8217,-3.8217,-3.7838,-3.7881,-3.7925,-3.8041,-3.8125,-3.818,-3.8274,-3.8303,-3.8332,-3.8364,-3.8407,-3.8406,-3.8411,-3.8382,-3.8382,-3.8383,-3.8383,-3.8383,-3.8384,-3.79,-3.7948,-3.8025,-3.8116,-3.817,-3.8245,-3.8325,-3.8378,-3.8445,-3.8459,-3.8459,-3.8469,-3.8338,-3.8305,-3.8389,-3.8388,-3.8387,-3.8387,-3.8386,-3.8044,-3.8017,-3.8135,-3.8189,-3.83,-3.8383,-3.842,-3.8526,-3.8574,-3.8619,-3.8622,-3.852,-3.8523,-3.8514,-3.8487,-3.8613,-3.8613,-3.8613,-3.8613,-3.8109,-3.8114,-3.8243,-3.8328,-3.8415,-3.8462,-3.8593,-3.8656,-3.8716,-3.8748,-3.8734,-3.87,-3.869,-3.8699,-3.8686,-3.8662,-3.8829,-3.883,-3.883,-3.8201,-3.8216,-3.8324,-3.8385,-3.8474,-3.855,-3.8675,-3.877,-3.8832,-3.8839,-3.8774,-3.8765,-3.8711,-3.8692,-3.8698,-3.8677,-3.8633,0,0]}]]